TimeCST,TemperatureF,Dew PointF,Humidity,Sea Level PressureIn,VisibilityMPH,Wind Direction,Wind SpeedMPH,Gust SpeedMPH,PrecipitationIn,Events,Conditions,WindDirDegrees,DateUTC
12:15 AM,55.4,44.6,67,30.18,10.0,Calm,Calm,-,N/A,,Mostly Cloudy,0,2013-11-09 06:15:00
12:35 AM,55.4,42.8,63,30.17,10.0,South,4.6,-,N/A,,Overcast,170,2013-11-09 06:35:00
12:55 AM,55.4,42.8,63,30.17,10.0,South,4.6,-,N/A,,Overcast,170,2013-11-09 06:55:00
1:15 AM,55.4,42.8,63,30.17,10.0,Calm,Calm,-,N/A,,Overcast,0,2013-11-09 07:15:00
1:35 AM,55.4,42.8,63,30.16,10.0,SE,3.5,-,N/A,,Overcast,140,2013-11-09 07:35:00
1:55 AM,55.4,42.8,63,30.17,10.0,Calm,Calm,-,N/A,,Mostly Cloudy,0,2013-11-09 07:55:00
2:15 AM,55.4,44.6,67,30.16,10.0,Calm,Calm,-,N/A,,Overcast,0,2013-11-09 08:15:00
2:35 AM,55.4,44.6,67,30.16,10.0,Calm,Calm,-,N/A,,Overcast,0,2013-11-09 08:35:00
2:55 AM,55.4,46.4,72,30.16,10.0,Calm,Calm,-,N/A,,Overcast,0,2013-11-09 08:55:00
3:15 AM,55.4,46.4,72,30.16,10.0,Calm,Calm,-,N/A,,Mostly Cloudy,0,2013-11-09 09:15:00
3:35 AM,53.6,46.4,77,30.16,10.0,Calm,Calm,-,N/A,,Mostly Cloudy,0,2013-11-09 09:35:00
3:55 AM,53.6,46.4,77,30.15,10.0,Calm,Calm,-,N/A,,Mostly Cloudy,0,2013-11-09 09:55:00
4:15 AM,53.6,46.4,77,30.16,10.0,Calm,Calm,-,N/A,,Scattered Clouds,0,2013-11-09 10:15:00
4:35 AM,53.6,46.4,77,30.15,10.0,Calm,Calm,-,N/A,,Mostly Cloudy,0,2013-11-09 10:35:00
4:55 AM,53.6,46.4,77,30.15,10.0,Calm,Calm,-,N/A,,Mostly Cloudy,0,2013-11-09 10:55:00
5:15 AM,53.6,46.4,77,30.16,10.0,Calm,Calm,-,N/A,,Mostly Cloudy,0,2013-11-09 11:15:00
5:35 AM,53.6,46.4,77,30.16,10.0,Calm,Calm,-,N/A,,Mostly Cloudy,0,2013-11-09 11:35:00
5:55 AM,53.6,46.4,77,30.17,10.0,Calm,Calm,-,N/A,,Scattered Clouds,0,2013-11-09 11:55:00
6:15 AM,51.8,46.4,82,30.18,10.0,Calm,Calm,-,N/A,,Clear,0,2013-11-09 12:15:00
6:35 AM,51.8,46.4,82,30.19,10.0,Calm,Calm,-,N/A,,Clear,0,2013-11-09 12:35:00
6:55 AM,51.8,46.4,82,30.19,10.0,Calm,Calm,-,N/A,,Scattered Clouds,0,2013-11-09 12:55:00
7:15 AM,51.8,46.4,82,30.19,10.0,Calm,Calm,-,N/A,,Partly Cloudy,0,2013-11-09 13:15:00
7:35 AM,51.8,46.4,82,30.19,10.0,Calm,Calm,-,N/A,,Partly Cloudy,0,2013-11-09 13:35:00
7:55 AM,53.6,48.2,82,30.19,10.0,SSE,5.8,-,N/A,,Partly Cloudy,150,2013-11-09 13:55:00
8:15 AM,55.4,48.2,77,30.20,10.0,SE,5.8,-,N/A,,Partly Cloudy,140,2013-11-09 14:15:00
8:35 AM,57.2,48.2,72,30.20,10.0,SSE,5.8,-,N/A,,Clear,150,2013-11-09 14:35:00
8:55 AM,57.2,48.2,72,30.21,10.0,SSE,5.8,-,N/A,,Partly Cloudy,160,2013-11-09 14:55:00
9:15 AM,60.8,51.8,72,30.21,10.0,SSE,8.1,-,N/A,,Mostly Cloudy,160,2013-11-09 15:15:00
9:35 AM,60.8,51.8,72,30.21,10.0,South,6.9,-,N/A,,Overcast,180,2013-11-09 15:35:00
9:55 AM,62.6,51.8,68,30.20,10.0,SSE,5.8,-,N/A,,Mostly Cloudy,160,2013-11-09 15:55:00
10:15 AM,64.4,51.8,64,30.20,10.0,South,8.1,-,N/A,,Partly Cloudy,170,2013-11-09 16:15:00
10:35 AM,64.4,53.6,68,30.20,10.0,South,11.5,-,N/A,,Scattered Clouds,190,2013-11-09 16:35:00
10:55 AM,64.4,53.6,68,30.20,10.0,South,10.4,-,N/A,,Overcast,190,2013-11-09 16:55:00
11:15 AM,64.4,53.6,68,30.19,10.0,South,9.2,-,N/A,,Overcast,190,2013-11-09 17:15:00
11:35 AM,64.4,53.6,68,30.18,10.0,South,9.2,-,N/A,,Mostly Cloudy,180,2013-11-09 17:35:00
11:55 AM,66.2,53.6,64,30.18,10.0,South,10.4,-,N/A,,Mostly Cloudy,190,2013-11-09 17:55:00
12:15 PM,66.2,53.6,64,30.17,10.0,SSW,9.2,-,N/A,,Mostly Cloudy,200,2013-11-09 18:15:00
12:35 PM,68.0,53.6,60,30.16,10.0,SSW,10.4,-,N/A,,Mostly Cloudy,200,2013-11-09 18:35:00
12:55 PM,69.8,55.4,60,30.15,10.0,SSW,11.5,16.1,N/A,,Mostly Cloudy,200,2013-11-09 18:55:00
1:15 PM,69.8,55.4,60,30.14,10.0,South,10.4,16.1,N/A,,Mostly Cloudy,170,2013-11-09 19:15:00
1:35 PM,69.8,55.4,60,30.14,10.0,South,9.2,-,N/A,,Mostly Cloudy,170,2013-11-09 19:35:00
1:55 PM,69.8,55.4,60,30.13,10.0,South,12.7,-,N/A,,Mostly Cloudy,180,2013-11-09 19:55:00
2:15 PM,69.8,55.4,60,30.13,10.0,SSW,11.5,19.6,N/A,,Scattered Clouds,200,2013-11-09 20:15:00
2:35 PM,69.8,55.4,60,30.13,10.0,South,10.4,-,N/A,,Partly Cloudy,180,2013-11-09 20:35:00
2:55 PM,69.8,55.4,60,30.13,10.0,South,8.1,-,N/A,,Scattered Clouds,190,2013-11-09 20:55:00
3:15 PM,69.8,55.4,60,30.13,9.0,South,9.2,-,N/A,,Partly Cloudy,180,2013-11-09 21:15:00
3:35 PM,69.8,55.4,60,30.13,10.0,South,10.4,-,N/A,,Scattered Clouds,170,2013-11-09 21:35:00
3:55 PM,69.8,55.4,60,30.13,10.0,South,10.4,-,N/A,,Partly Cloudy,190,2013-11-09 21:55:00
4:15 PM,69.8,55.4,60,30.14,10.0,South,10.4,-,N/A,,Partly Cloudy,180,2013-11-09 22:15:00
4:35 PM,68.0,55.4,64,30.14,10.0,South,9.2,-,N/A,,Clear,190,2013-11-09 22:35:00
4:55 PM,66.2,55.4,68,30.15,10.0,South,6.9,-,N/A,,Clear,170,2013-11-09 22:55:00
5:15 PM,66.2,55.4,68,30.15,10.0,South,8.1,-,N/A,,Clear,170,2013-11-09 23:15:00
5:35 PM,64.4,55.4,73,30.15,10.0,South,8.1,-,N/A,,Clear,170,2013-11-09 23:35:00
5:55 PM,62.6,55.4,77,30.16,10.0,SSE,5.8,-,N/A,,Clear,160,2013-11-09 23:55:00
6:15 PM,62.6,55.4,77,30.16,10.0,SSE,4.6,-,N/A,,Clear,150,2013-11-10 00:15:00
6:35 PM,60.8,55.4,82,30.17,10.0,Calm,Calm,-,N/A,,Clear,0,2013-11-10 00:35:00
6:55 PM,60.8,55.4,82,30.18,10.0,SE,3.5,-,N/A,,Clear,140,2013-11-10 00:55:00
7:15 PM,59.0,55.4,88,30.19,10.0,Calm,Calm,-,N/A,,Clear,0,2013-11-10 01:15:00
7:35 PM,57.2,53.6,88,30.19,10.0,Calm,Calm,-,N/A,,Clear,0,2013-11-10 01:35:00
8:35 PM,55.4,51.8,88,30.20,10.0,Calm,Calm,-,N/A,,Clear,0,2013-11-10 02:35:00
8:55 PM,53.6,51.8,94,30.21,10.0,Calm,Calm,-,N/A,,Clear,0,2013-11-10 02:55:00
9:15 PM,53.6,51.8,94,30.21,10.0,Calm,Calm,-,N/A,,Clear,0,2013-11-10 03:15:00
9:35 PM,53.6,51.8,94,30.22,10.0,Calm,Calm,-,N/A,,Clear,0,2013-11-10 03:35:00
9:55 PM,53.6,51.8,94,30.22,10.0,Calm,Calm,-,N/A,,Partly Cloudy,0,2013-11-10 03:55:00
10:15 PM,53.6,51.8,94,30.22,10.0,Calm,Calm,-,N/A,,Clear,0,2013-11-10 04:15:00
10:35 PM,53.6,53.6,100,30.22,10.0,Calm,Calm,-,N/A,,Clear,0,2013-11-10 04:35:00
10:55 PM,55.4,53.6,94,30.22,10.0,Calm,Calm,-,N/A,,Clear,0,2013-11-10 04:55:00
11:15 PM,51.8,50.0,94,30.22,10.0,Calm,Calm,-,N/A,,Clear,0,2013-11-10 05:15:00
11:35 PM,51.8,48.2,88,30.23,10.0,Calm,Calm,-,N/A,,Clear,0,2013-11-10 05:35:00
11:55 PM,50.0,48.2,94,30.23,10.0,Calm,Calm,-,N/A,,Clear,0,2013-11-10 05:55:00